Voltar ao catálogo

OPS 4682 DEB

AtivoPO
NORAD 12102·DEBRIS·🇺🇸 United States

Lançado Apr 3, 1965 de Vandenberg Space Force Base

Loading…

Próximas Passagens (próximas 24 horas)

TLE

AtualizadoSource: Space-Track

Época: Sep 12, 2026, 02:12 UTC

1 12102U 65027G   26255.09187046 -.00000342  00000-0 -11813-2 0  9998
2 12102  90.2574  16.5551 0027575 113.6608  64.5301 12.98796811902012

Acompanhe OPS 4682 DEB em tempo real com AllMySat

Download on the App Store